Salina, KS

12:00 AM CDT on May 27, 2017 (GMT -0500)
Salina Municipal

Weather History for KSLN - July, 2012

Change the Weather History Date:

Wednesday, July 18, 2012

  Actual Average Record
Temperature  
Mean Temperature 93 °F 82 °F  
Max Temperature 108 °F 93 °F 116 °F (1936)
Min Temperature 77 °F 70 °F 56 °F (1908)
Degree Days  
Heating Degree Days 0 0  
Month to date heating degree days 0 0  
Since 1 June heating degree days 10 7  
Since 1 July heating degree days 0 0  
Cooling Degree Days 28 16  
Month to date cooling degree days 393 284  
Year to date cooling degree days 1193 737  
Since 1 June cooling degree days 871 609  
Growing Degree Days 43 (Base 50)    
Moisture  
Dew Point 61 °F    
Average Humidity 31    
Maximum Humidity 43    
Minimum Humidity 18    
Precipitation  
Precipitation 0.27 in 0.14 in 1.15 in (2008)
Month to date precipitation 0.58 2.66  
Year to date precipitation 10.17 18.76  
Sea Level Pressure  
Sea Level Pressure 29.82 in    
Wind  
Wind Speed 15 mph (South)    
Max Wind Speed 33 mph    
Max Gust Speed 46 mph    
Visibility 10 miles    
Events Rain , Thunderstorm    
T = Trace of Precipitation, MM = Missing Value Source: NWS Daily Summary

Daily Weather History Graph

Daily Weather History Graph

Search for Another Location

Airport or City:

Trip Planner

Search our weather history database for the weather conditions in past years. The results will help you decide how hot, cold, wet, or windy it might be!

Date:

Astronomy

Jul. 18, 2012 Rise Set
Actual Time 6:20 AM CDT 8:52 PM CDT
Civil Twilight 5:49 AM CDT 9:23 PM CDT
Nautical Twilight 5:11 AM CDT 10:01 PM CDT
Astronomical Twilight 4:28 AM CDT 10:44 PM CDT
Moon 5:55 AM CDT (7/18) 8:24 PM CDT (7/18)
Length of Visible Light 15h 33m
Length of Day
14h 32m
Waning Crescent, 0% of the Moon is Illuminated
Jul 18
Waning Crescent
Jul 18
New
Jul 26
First Quarter
Aug 1
Full
Aug 9
Last Quarter

Hourly Weather History & Observations

Time (CDT) Temp. Heat Index Dew Point Humidity Pressure Visibility Wind Dir Wind Speed Gust Speed Precip Events Conditions
12:53 AM 89.1 °F 88.2 °F 59.0 °F 36% 29.78 in 10.0 mi South 13.8 mph 24.2 mph N/A   Clear
1:53 AM 88.0 °F 86.9 °F 57.9 °F 36% 29.77 in 10.0 mi South 15.0 mph 24.2 mph N/A   Clear
2:53 AM 87.1 °F 86.1 °F 57.9 °F 37% 29.78 in 10.0 mi South 15.0 mph 24.2 mph N/A   Clear
3:53 AM 84.9 °F 84.2 °F 57.9 °F 40% 29.78 in 10.0 mi South 11.5 mph - N/A   Partly Cloudy
4:53 AM 82.9 °F 82.6 °F 57.9 °F 42% 29.79 in 10.0 mi South 9.2 mph - N/A   Clear
5:53 AM 86.0 °F 85.4 °F 59.0 °F 40% 29.79 in 10.0 mi SSW 15.0 mph - N/A   Clear
6:53 AM 79.0 °F - 64.9 °F 62% 29.81 in 10.0 mi South 9.2 mph - 0.00 in Rain Light Rain
7:53 AM 80.1 °F 81.9 °F 64.9 °F 60% 29.83 in 10.0 mi South 8.1 mph - 0.04 in   Clear
8:53 AM 88.0 °F 88.7 °F 63.0 °F 43% 29.84 in 10.0 mi SSW 18.4 mph - N/A   Clear
9:53 AM 91.9 °F 92.5 °F 62.1 °F 37% 29.85 in 10.0 mi SSW 18.4 mph - N/A   Clear
10:53 AM 93.0 °F 94.2 °F 63.0 °F 37% 29.85 in 10.0 mi SSW 17.3 mph - N/A   Clear
11:53 AM 100.0 °F 101.8 °F 62.1 °F 29% 29.84 in 10.0 mi SSW 13.8 mph 21.9 mph N/A   Clear
12:53 PM 102.0 °F 103.3 °F 61.0 °F 26% 29.83 in 10.0 mi SSW 18.4 mph 24.2 mph N/A   Clear
1:53 PM 106.0 °F 106.4 °F 59.0 °F 21% 29.81 in 10.0 mi SW 19.6 mph 26.5 mph N/A   Clear
2:53 PM 107.1 °F 108.1 °F 59.0 °F 21% 29.80 in 10.0 mi SSW 21.9 mph 28.8 mph N/A   Clear
3:53 PM 105.1 °F 104.4 °F 55.9 °F 20% 29.79 in 10.0 mi WSW 16.1 mph 26.5 mph N/A   Partly Cloudy
4:53 PM 105.1 °F 104.4 °F 55.9 °F 20% 29.77 in 10.0 mi SW 15.0 mph - N/A   Scattered Clouds
5:53 PM 107.1 °F 106.7 °F 55.9 °F 19% 29.75 in 10.0 mi SSW 17.3 mph 21.9 mph N/A   Scattered Clouds
6:53 PM 106.0 °F 105.1 °F 55.0 °F 19% 29.75 in 10.0 mi SSW 15.0 mph - N/A   Partly Cloudy
7:53 PM 105.1 °F 103.3 °F 54.0 °F 18% 29.74 in 10.0 mi SW 11.5 mph - N/A   Partly Cloudy
8:53 PM 93.9 °F 94.0 °F 61.0 °F 33% 29.78 in 10.0 mi NE 18.4 mph 24.2 mph N/A   Mostly Cloudy
9:04 PM 93.2 °F 93.3 °F 60.8 °F 34% 29.85 in 10.0 mi NNE 16.1 mph - N/A   Mostly Cloudy
9:36 PM 87.8 °F 89.4 °F 64.4 °F 46% 29.90 in 10.0 mi NW 23.0 mph 34.5 mph 0.00 in Rain , Thunderstorm Thunderstorms and Rain
9:53 PM 84.9 °F 86.1 °F 64.0 °F 49% 29.84 in 6.0 mi East 18.4 mph 46.0 mph 0.23 in Rain , Thunderstorm Heavy Thunderstorms and Rain
10:00 PM 86.0 °F 87.3 °F 64.4 °F 48% 29.89 in 8.0 mi NNE 17.3 mph 36.8 mph 0.00 in Rain , Thunderstorm Light Thunderstorms and Rain
10:44 PM 87.8 °F 89.4 °F 64.4 °F 46% 29.90 in 10.0 mi NE 9.2 mph - 0.00 in   Mostly Cloudy
10:53 PM 84.9 °F 86.6 °F 64.9 °F 51% 29.84 in 10.0 mi East 13.8 mph 19.6 mph 0.00 in Thunderstorm Mostly Cloudy
11:17 PM 82.4 °F 84.6 °F 66.2 °F 58% 29.89 in 10.0 mi ESE 9.2 mph - N/A   Scattered Clouds
11:53 PM 82.9 °F 85.0 °F 66.0 °F 56% 29.83 in 10.0 mi SE 6.9 mph - N/A   Clear